Wind_Speed
75 75 69 67 68 66 66 63 67 66 64 63 62 58 54 50 50 52 55 55 53 56 47 36 41 43 41 39 37 37 37 38 37 38 39 41 42 43 44 44 43 42 40
63 59 68 68 71 73 70 72 72 67 67 70 65 61 57 53 57 56 55 50 50 54 42 38 42 42 39 39 37 37 37 37 36 37 39 39 42 43 44 44 42 40 40
50 51 62 72 68 66 66 72 69 70 76 71 69 62 60 62 60 58 62 62 56 44 39 40 43 40 39 38 36 35 36 36 36 37 38 39 41 43 43 44 42 39 38
39 43 50 61 64 57 64 64 65 54 72 61 60 63 74 66 57 65 53 53 49 42 41 39 40 39 38 36 34 36 37 36 35 36 38 39 39 41 42 42 39 39 39
22 24 29 35 45 48 50 60 67 64 61 65 59 56 58 61 68 52 47 45 38 34 35 40 38 36 36 35 36 39 38 37 37 38 41 42 41 41 40 40 37 39 39
31 29 29 33 35 38 41 44 55 61 62 56 63 71 71 55 50 51 41 34 31 34 38 37 36 35 32 33 35 37 38 39 38 40 43 47 43 41 38 39 38 39 39
22 25 23 27 35 36 39 42 47 51 57 53 41 42 46 43 38 35 32 29 33 36 37 35 33 33 35 35 37 38 42 43 44 44 45 43 42 40 37 37 38 39 39
26 27 25 28 29 32 43 44 37 36 34 33 38 41 39 37 33 28 27 29 32 32 31 32 34 36 37 42 42 48 43 45 45 45 45 42 41 39 35 34 37 39 39
17 14 18 24 27 26 30 32 35 31 30 29 35 38 33 26 29 31 28 28 33 34 35 36 38 41 38 41 49 47 53 52 44 43 43 41 39 35 34 35 34 36 38
4 13 30 25 23 26 22 32 29 28 31 34 35 28 28 32 33 33 33 32 33 34 40 42 39 42 43 49 42 39 38 38 39 41 39 41 39 37 37 37 38 40 39
11 23 24 21 25 28 31 25 29 30 29 28 27 28 29 28 25 29 33 34 36 42 42 43 45 47 46 43 44 40 37 38 35 35 37 40 41 41 42 42 43 44 44
12 9 26 24 26 25 25 31 28 23 20 23 23 23 24 26 29 31 33 34 38 41 43 43 41 42 42 44 47 47 41 37 37 40 41 43 43 44 45 45 46 47 48
11 15 15 24 26 26 23 24 25 24 23 22 21 22 24 26 27 28 30 32 32 34 35 35 35 38 38 42 42 42 40 40 40 42 44 45 45 46 47 47 47 48 49
15 14 15 16 26 20 26 26 23 23 24 22 22 23 23 23 25 26 27 29 32 34 38 38 40 40 40 41 41 40 41 42 44 47 46 44 43 42 44 46 47 47 45
23 21 22 19 18 22 26 29 24 27 26 23 24 24 24 27 26 28 30 31 34 35 37 39 39 38 39 41 41 42 43 45 46 45 42 36 38 42 43 43 42 42 41
31 28 28 27 25 22 30 27 30 33 30 22 22 22 22 22 25 26 28 29 30 32 34 35 36 37 39 41 43 42 38 38 36 34 36 39 40 40 38 38 38 39 41
39 32 28 25 29 29 32 26 25 24 23 26 23 21 22 23 23 24 25 26 27 25 25 25 26 26 27 27 29 30 32 35 36 35 34 34 34 34 35 36 38 40 42
26 24 26 30 28 28 28 32 27 27 26 25 22 19 21 20 20 22 23 24 23 20 19 19 22 23 24 25 26 27 27 28 28 29 30 29 31 33 35 37 39 41 44
24 21 27 25 27 26 29 32 30 28 26 22 21 19 18 19 19 22 23 24 22 21 21 22 23 25 27 28 28 28 27 27 26 27 28 30 32 34 35 38 41 43 45
16 24 20 26 27 30 37 35 32 27 24 23 21 20 20 20 21 21 21 21 22 23 24 24 25 26 28 28 27 25 24 24 25 26 28 29 31 34 36 38 41 44 47
18 19 29 28 24 26 29 29 27 25 24 23 21 21 21 21 20 21 21 22 24 26 28 28 29 29 28 26 23 23 24 24 24 25 27 29 31 34 37 41 44 47 52
16 20 25 26 24 25 25 24 24 24 24 23 22 22 22 22 22 23 25 26 28 30 31 31 30 29 25 23 22 22 21 22 24 26 27 30 33 37 41 43 47 52 56
19 15 20 23 23 25 24 23 23 23 23 22 22 23 23 23 24 27 29 29 32 32 32 31 27 24 22 21 20 19 21 23 25 28 30 34 37 40 43 48 52 57 60
24 23 19 20 20 20 20 21 22 22 22 23 23 25 25 26 27 29 30 31 33 32 29 25 22 21 20 19 19 22 23 25 28 31 35 37 40 43 48 52 58 61 64
25 24 24 23 22 24 26 28 27 25 25 26 28 29 29 31 33 32 32 32 31 27 23 21 21 20 19 19 22 23 25 28 31 34 37 40 43 46 51 55 60 63 65
20 23 24 23 24 26 27 28 28 29 29 29 30 32 32 31 32 32 32 30 27 23 21 21 20 19 20 21 23 25 27 30 33 37 40 43 46 50 54 58 60 65 64
Wind_Direction
266 263 258 251 250 242 243 242 242 248 248 243 246 247 248 251 252 254 260 265 267 244 234 242 247 251 252 256 258 260 265 268 271 275 279 282 286 287 288 286 283 280 274
262 250 239 237 233 232 232 232 236 241 243 246 242 247 248 249 250 257 264 238 240 231 234 238 247 249 252 254 257 262 266 271 275 278 281 285 287 287 285 284 280 276 267
252 248 240 238 231 229 230 232 232 233 238 240 243 249 248 246 249 256 254 243 235 229 230 237 245 248 251 254 259 264 267 271 275 279 283 287 288 288 285 283 278 271 265
264 255 243 241 250 254 227 230 228 236 234 238 243 243 247 255 244 257 224 221 228 229 231 237 243 247 251 258 263 265 267 269 276 281 286 287 289 292 289 282 277 269 265
251 240 239 238 240 243 243 231 230 238 243 242 246 249 246 247 243 218 217 226 229 231 235 239 243 248 254 259 263 266 266 269 273 281 287 287 286 288 292 283 274 269 267
251 245 253 246 230 230 235 237 237 240 240 238 239 241 247 216 203 210 223 215 216 229 237 241 244 250 257 263 266 268 269 270 275 283 288 287 285 287 288 286 278 271 270
238 233 236 235 230 233 230 217 225 228 233 235 216 202 201 197 208 204 203 214 225 233 237 240 243 252 259 267 272 275 274 271 274 282 281 277 280 282 287 289 283 275 271
250 256 255 240 239 231 215 218 214 208 194 193 193 200 200 197 199 206 217 226 233 237 241 244 248 257 266 273 278 280 270 269 271 278 274 274 278 278 287 291 289 282 274
266 228 222 192 182 182 176 187 191 186 186 183 192 195 195 199 208 221 219 232 241 241 237 242 254 267 267 274 279 267 267 266 269 269 269 273 275 282 285 290 296 296 289
159 191 177 185 185 180 183 183 186 185 191 203 202 202 206 213 216 222 227 232 239 249 251 256 260 262 271 274 267 268 268 273 272 270 267 272 278 281 286 289 294 296 300
93 178 189 199 209 205 203 189 198 202 206 205 213 217 216 219 223 229 235 246 250 253 259 261 260 267 269 266 265 274 278 275 273 274 272 276 280 282 285 287 290 294 296
356 153 193 187 204 222 220 208 209 202 199 202 207 213 220 226 234 240 247 256 258 259 265 268 266 267 267 267 267 275 277 275 270 270 273 279 280 279 280 284 288 292 295
320 321 192 183 212 225 219 208 197 194 204 207 212 220 227 236 240 244 248 253 257 258 260 263 264 263 263 264 266 266 268 272 269 274 276 276 275 277 278 282 287 293 295
301 286 283 227 208 209 211 208 201 201 202 205 213 222 227 233 236 247 258 264 265 265 266 265 262 262 263 264 266 268 267 269 272 275 277 273 274 277 281 286 291 293 291
283 289 257 261 253 214 211 200 209 204 209 211 223 226 233 239 249 254 262 268 269 268 268 268 266 264 265 266 267 270 271 273 276 273 271 271 276 283 287 290 290 289 290
269 273 244 238 237 228 207 216 214 213 217 224 228 240 247 253 259 264 268 270 271 271 269 267 265 264 265 266 271 273 272 272 272 270 273 281 285 287 288 290 290 290 290
265 260 228 228 225 217 210 221 211 216 219 224 228 240 247 252 256 260 265 267 268 270 270 271 269 269 271 271 271 271 273 274 276 278 281 283 286 288 290 292 294 294 296
238 230 218 218 230 228 217 220 215 215 229 225 234 239 243 245 252 260 262 266 269 273 280 284 283 280 278 277 277 277 276 277 280 283 285 286 290 293 295 297 299 300 300
220 216 222 220 214 206 207 215 218 224 225 230 227 230 239 252 261 260 263 267 272 275 281 286 289 287 285 282 279 277 278 281 282 283 287 293 295 299 301 302 303 305 306
212 196 192 203 206 218 212 216 216 218 221 221 226 239 250 259 265 265 267 270 274 277 280 286 287 288 284 280 278 279 278 279 285 290 294 297 300 302 305 307 309 311 312
189 175 186 200 205 209 202 205 211 214 216 226 242 253 258 269 270 267 267 273 279 281 282 283 283 284 280 276 274 276 281 286 291 294 297 302 305 308 311 313 315 316 316
182 189 193 203 209 211 208 209 213 220 232 244 253 258 267 271 271 267 265 270 282 283 281 281 282 279 272 272 274 280 285 288 294 298 301 305 309 311 313 316 317 318 317
193 197 204 208 214 211 208 215 226 237 245 250 258 264 267 271 271 267 268 277 282 281 281 281 277 270 269 272 277 281 289 294 295 300 305 308 310 312 314 316 318 317 315
210 213 216 214 211 214 223 230 240 246 251 258 264 266 270 269 266 270 277 280 281 280 277 272 265 266 270 272 279 286 290 296 301 304 306 308 311 314 314 315 316 316 317
210 219 226 234 233 237 242 248 249 254 258 261 265 269 270 269 269 273 278 279 276 271 264 260 263 264 267 277 285 290 295 300 302 304 307 309 311 312 314 315 317 318 318
211 217 226 231 234 235 239 243 249 254 256 259 264 268 266 266 270 275 275 271 266 259 257 259 260 267 278 283 287 294 298 300 302 305 307 308 309 311 312 315 318 319 318
Height
5520 5526 5530 5536 5541 5548 5556 5563 5568 5575 5583 5586 5592 5598 5603 5607 5611 5614 5616 5617 5620 5621 5621 5623 5629 5632 5634 5634 5634 5635 5634 5634 5634 5633 5632 5630 5629 5627 5625 5622 5620 5619 5617
5493 5501 5506 5512 5518 5524 5531 5540 5547 5558 5564 5569 5575 5583 5588 5593 5596 5600 5604 5602 5607 5607 5610 5615 5620 5623 5624 5625 5625 5626 5625 5626 5624 5623 5622 5620 5619 5617 5614 5611 5609 5609 5608
5472 5480 5486 5490 5498 5505 5513 5519 5530 5534 5544 5552 5560 5567 5573 5577 5582 5585 5590 5591 5594 5596 5599 5605 5610 5613 5615 5615 5616 5617 5616 5616 5615 5614 5613 5612 5610 5607 5603 5602 5600 5599 5599
5463 5463 5469 5476 5478 5485 5494 5505 5516 5519 5521 5536 5544 5550 5556 5557 5566 5573 5571 5577 5582 5584 5592 5597 5601 5604 5605 5606 5607 5608 5607 5607 5606 5605 5604 5602 5601 5598 5595 5593 5590 5590 5590
5454 5455 5459 5462 5466 5472 5479 5490 5501 5509 5514 5525 5528 5535 5543 5550 5555 5560 5561 5568 5571 5581 5587 5590 5593 5595 5596 5597 5598 5599 5598 5598 5597 5597 5596 5595 5592 5589 5586 5583 5581 5580 5580
5448 5448 5450 5453 5457 5462 5470 5477 5488 5497 5505 5512 5516 5522 5530 5532 5543 5544 5555 5560 5568 5574 5579 5582 5584 5586 5587 5588 5589 5589 5589 5589 5588 5588 5587 5586 5584 5581 5577 5575 5572 5571 5571
5440 5441 5444 5445 5450 5454 5464 5469 5476 5484 5492 5498 5503 5512 5522 5526 5534 5543 5550 5555 5561 5567 5571 5573 5576 5577 5578 5580 5580 5580 5580 5580 5580 5579 5576 5575 5573 5571 5568 5564 5563 5562 5561
5436 5435 5438 5441 5444 5448 5453 5462 5471 5479 5485 5492 5502 5510 5515 5522 5531 5537 5543 5549 5555 5559 5562 5565 5567 5568 5570 5571 5570 5570 5570 5569 5567 5567 5566 5565 5564 5561 5558 5556 5554 5552 5551
5429 5429 5434 5438 5444 5448 5454 5462 5469 5477 5486 5494 5499 5506 5512 5519 5527 5533 5538 5544 5548 5551 5553 5555 5557 5559 5560 5560 5560 5559 5558 5557 5556 5555 5555 5555 5553 5551 5549 5547 5545 5542 5540
5426 5428 5434 5441 5447 5452 5457 5463 5470 5478 5484 5490 5496 5501 5508 5516 5521 5527 5532 5536 5540 5544 5548 5549 5549 5549 5550 5552 5551 5550 5548 5546 5545 5545 5544 5544 5543 5541 5539 5537 5535 5533 5530
5431 5434 5438 5443 5446 5453 5458 5464 5470 5475 5481 5487 5494 5501 5507 5511 5516 5521 5526 5529 5532 5535 5537 5538 5537 5538 5539 5539 5539 5539 5538 5537 5535 5535 5534 5533 5532 5530 5529 5527 5525 5522 5519
5436 5436 5440 5445 5448 5452 5458 5463 5469 5473 5479 5486 5492 5496 5501 5506 5511 5516 5519 5521 5523 5525 5527 5527 5527 5528 5528 5528 5528 5528 5527 5527 5525 5525 5524 5522 5520 5519 5517 5515 5513 5510 5507
5442 5440 5441 5446 5449 5454 5458 5462 5467 5471 5478 5483 5487 5492 5497 5502 5505 5510 5512 5513 5515 5516 5517 5516 5517 5519 5518 5518 5517 5517 5517 5516 5515 5514 5512 5510 5508 5507 5505 5503 5501 5497 5494
5441 5443 5444 5444 5448 5451 5456 5461 5465 5469 5474 5479 5484 5489 5492 5496 5500 5503 5505 5508 5508 5506 5507 5507 5507 5507 5508 5508 5507 5506 5506 5504 5503 5501 5499 5498 5496 5495 5493 5491 5488 5485 5482
5437 5439 5441 5443 5443 5446 5451 5457 5461 5466 5471 5474 5479 5484 5488 5491 5493 5496 5497 5498 5498 5497 5497 5497 5497 5497 5496 5496 5495 5494 5493 5492 5491 5489 5488 5487 5486 5484 5482 5479 5476 5474 5471
5430 5432 5435 5438 5441 5443 5448 5453 5458 5462 5466 5471 5475 5478 5481 5484 5487 5489 5490 5489 5488 5489 5489 5488 5487 5486 5485 5485 5484 5483 5482 5481 5480 5479 5478 5477 5475 5473 5471 5468 5466 5463 5461
5420 5423 5426 5430 5435 5440 5445 5449 5453 5459 5462 5466 5470 5473 5475 5478 5480 5482 5483 5483 5483 5482 5480 5478 5477 5476 5475 5474 5473 5473 5472 5471 5470 5469 5468 5467 5466 5464 5461 5459 5456 5453 5449
5411 5413 5418 5423 5429 5435 5439 5444 5448 5453 5457 5460 5464 5467 5470 5472 5473 5475 5475 5476 5476 5475 5472 5470 5469 5468 5467 5466 5465 5464 5463 5462 5461 5460 5459 5458 5457 5455 5452 5449 5446 5442 5438
5404 5408 5411 5416 5423 5429 5434 5440 5444 5448 5452 5455 5458 5461 5464 5467 5467 5468 5468 5468 5467 5466 5464 5463 5462 5460 5459 5458 5457 5456 5454 5453 5453 5453 5452 5450 5448 5446 5443 5439 5436 5431 5426
5400 5403 5408 5414 5418 5423 5428 5434 5439 5442 5446 5450 5453 5456 5459 5460 5460 5459 5459 5459 5459 5458 5457 5455 5454 5453 5451 5450 5448 5448 5447 5446 5446 5445 5444 5442 5439 5436 5433 5429 5425 5420 5414
5397 5400 5405 5411 5416 5420 5424 5428 5434 5438 5442 5445 5448 5450 5451 5451 5451 5451 5451 5451 5451 5449 5448 5447 5446 5444 5442 5441 5441 5440 5440 5439 5438 5437 5435 5433 5430 5426 5422 5418 5413 5408 5400
5396 5399 5403 5408 5413 5418 5421 5425 5430 5434 5437 5439 5441 5442 5443 5443 5442 5443 5443 5443 5442 5440 5439 5437 5436 5435 5434 5434 5434 5433 5433 5432 5431 5429 5426 5424 5420 5416 5412 5407 5401 5394 5387
5395 5399 5402 5406 5410 5413 5417 5421 5425 5427 5430 5431 5433 5433 5433 5434 5434 5435 5435 5434 5432 5430 5429 5428 5427 5427 5427 5427 5427 5426 5425 5424 5422 5420 5417 5414 5410 5406 5401 5395 5388 5381 5372
5394 5396 5399 5403 5406 5409 5412 5415 5418 5420 5422 5423 5424 5424 5425 5425 5425 5425 5424 5423 5422 5421 5419 5419 5419 5419 5419 5419 5419 5418 5417 5415 5413 5410 5408 5404 5400 5395 5388 5382 5375 5367 5357
5388 5391 5394 5397 5399 5402 5405 5408 5409 5411 5413 5414 5415 5415 5415 5416 5416 5415 5414 5413 5412 5411 5411 5411 5412 5412 5412 5411 5411 5410 5408 5406 5404 5401 5397 5393 5388 5383 5376 5369 5361 5352 5343
5382 5384 5387 5389 5392 5395 5397 5399 5401 5402 5404 5404 5405 5406 5406 5406 5405 5405 5404 5403 5403 5403 5403 5404 5404 5404 5404 5404 5403 5401 5400 5398 5395 5391 5387 5382 5377 5371 5363 5355 5346 5336 5327